Wind_Speed
48 54 47 47 54 49 48 50 48 46 46 51 54 51 52 53 51 49 47 46 46 45 40 42 41 39 33 29 29 29 32 35 37 40 43 48 53 59 63 65 60 50 44 43 43 46 45 37 41 33 34 34 34 30
44 50 55 51 40 42 41 35 40 49 59 57 46 42 42 40 38 36 36 33 32 34 34 33 30 28 24 27 30 34 36 40 42 46 51 55 57 60 63 60 46 35 32 35 36 36 39 41 37 27 36 37 28 22
37 43 48 44 50 33 35 38 45 51 50 45 41 39 35 32 31 31 31 34 31 28 27 25 27 27 29 34 36 39 42 46 50 53 54 55 57 53 47 45 41 44 47 45 42 40 39 43 38 38 35 16 16 18
38 38 39 43 41 41 36 33 31 32 32 32 30 29 27 26 27 28 27 27 24 24 26 26 29 33 36 38 40 43 49 51 51 51 51 47 39 37 35 37 37 37 42 46 47 41 43 42 44 30 24 25 31 28
31 31 32 31 30 31 31 30 29 29 26 25 26 24 24 23 24 23 24 25 27 27 28 30 32 36 40 42 46 47 48 49 48 46 39 33 34 37 33 34 29 37 41 48 38 42 47 36 44 39 33 27 26 27
27 27 25 24 26 29 29 27 25 24 24 24 24 22 22 23 23 25 26 27 28 31 33 37 39 42 44 45 45 45 46 42 36 28 28 28 27 30 27 24 26 31 34 37 36 43 42 40 41 37 36 31 28 28
18 22 23 22 24 25 24 23 21 20 24 23 24 24 25 25 26 28 30 31 33 35 36 37 37 39 39 40 41 39 33 28 26 24 21 21 20 22 18 12 7 12 20 27 29 31 32 36 37 43 43 38 33 33
20 22 24 22 23 25 25 22 20 20 22 25 26 26 26 28 31 33 34 35 36 36 35 34 34 35 39 38 33 30 26 25 24 23 20 20 20 19 10 9 16 22 23 22 21 22 22 18 23 26 21 19 22 28
19 21 23 24 24 24 23 22 24 23 24 25 26 28 28 30 31 32 32 31 31 33 31 31 32 32 33 29 26 26 24 21 21 20 19 18 19 16 15 23 20 23 22 21 19 19 18 16 17 17 20 21 26 27
26 25 26 28 26 27 26 24 21 22 22 24 26 26 27 27 26 26 26 26 26 25 25 25 25 26 27 30 29 28 25 25 22 21 23 21 15 16 16 16 13 14 15 16 16 18 19 20 19 20 24 27 27 28
28 28 26 26 26 25 24 23 23 23 23 24 24 24 22 18 18 18 18 22 24 24 25 26 19 9 7 12 21 29 25 22 22 21 22 19 11 14 6 8 7 13 15 6 7 12 17 17 19 21 24 27 29 29
29 30 29 28 26 26 25 24 25 24 22 20 15 12 11 14 16 17 18 17 15 5 3 3 8 10 15 15 14 10 17 18 19 19 22 19 14 10 4 9 10 11 7 8 9 10 8 12 14 17 19 23 27 30
23 22 25 27 27 26 25 25 24 22 20 18 12 12 14 14 13 12 5 9 5 7 9 11 12 12 10 9 5 6 8 10 14 14 13 15 12 9 9 9 9 13 13 13 12 11 13 16 17 17 16 15 16 19
23 25 24 22 22 23 23 21 20 17 18 15 13 16 12 9 9 17 13 13 7 3 4 7 10 7 11 11 8 10 9 8 6 7 8 12 12 12 13 12 9 14 15 16 17 18 19 20 18 18 17 15 14 15
10 18 22 22 22 25 23 20 16 14 11 13 13 12 12 17 16 14 11 7 2 6 4 4 5 6 12 12 11 11 9 9 7 6 8 11 11 17 15 17 21 19 19 24 22 22 23 22 21 20 19 18 16 15
31 15 14 20 21 23 23 19 16 13 12 12 14 16 17 14 13 12 10 10 2 3 6 6 6 6 6 7 7 10 10 9 10 13 16 16 21 22 24 26 26 27 28 29 28 26 27 26 26 25 25 23 21 20
28 29 26 21 17 16 15 12 14 13 16 19 19 17 15 14 13 13 12 12 13 11 11 11 9 9 10 10 9 15 17 14 18 24 24 25 28 28 28 29 32 35 33 32 31 31 31 31 31 30 29 30 29 28
21 24 25 27 28 27 23 21 18 17 15 15 15 16 14 13 13 15 17 18 19 20 20 20 21 19 22 22 23 27 22 20 26 29 31 33 31 32 35 38 39 40 40 41 40 39 38 35 35 35 35 36 35 34
9 10 12 13 12 12 12 11 11 12 12 11 12 14 16 17 18 20 23 24 27 28 29 30 32 33 34 35 35 36 37 38 37 38 42 42 42 44 46 48 49 51 52 50 50 50 47 45 44 43 41 41 41 40
7 5 6 8 9 9 8 9 10 12 14 16 18 18 21 24 27 30 33 35 38 39 40 40 39 42 44 45 46 47 48 49 50 50 50 52 53 55 56 56 57 57 58 60 60 58 56 55 52 48 46 45 42 38
8 7 6 4 2 5 10 16 18 21 23 25 28 29 28 28 28 26 26 26 25 24 22 23 22 24 26 30 31 33 34 36 40 44 46 48 51 53 54 55 57 59 60 60 60 59 57 53 50 46 42 38 36 35
8 7 5 4 2 1 1 3 4 5 7 10 12 12 12 14 17 18 18 19 19 20 21 23 25 26 26 27 28 29 30 31 31 32 34 34 35 36 39 40 42 45 47 51 53 53 51 46 42 39 37 35 35 34
12 9 9 7 6 6 5 4 4 5 5 9 11 12 13 15 16 17 17 18 20 24 26 26 25 26 27 28 30 31 31 32 34 34 36 37 39 40 41 43 44 45 45 45 46 44 42 40 38 34 34 34 35 34
14 12 12 12 11 10 10 9 10 10 10 10 10 11 12 14 13 15 16 19 21 22 25 27 28 29 30 31 33 34 35 35 37 39 39 40 42 45 47 46 46 45 43 41 39 38 36 34 34 33 33 32 32 32
13 13 15 14 15 15 16 16 16 15 15 15 15 15 15 17 17 17 18 18 20 22 23 24 26 29 30 32 34 36 38 39 40 41 41 43 45 45 45 45 44 43 39 36 35 35 34 33 32 32 32 32 31 30
13 13 14 15 15 16 18 18 19 20 21 21 22 21 22 23 23 24 23 25 25 25 26 27 29 30 30 30 32 35 38 39 41 41 41 42 43 44 45 44 42 39 37 34 33 34 34 33 33 32 31 31 31 30
14 14 15 15 15 17 18 20 22 23 24 24 25 26 27 29 29 30 30 31 32 33 34 35 36 35 35 36 36 36 37 38 38 38 40 41 42 42 41 38 36 34 33 33 32 32 33 34 33 31 29 27 27 27
14 15 16 16 16 17 18 20 22 23 25 27 27 29 30 31 32 34 35 36 37 38 39 39 40 40 40 40 41 40 38 37 37 37 39 39 40 40 37 32 29 27 28 29 30 30 30 30 32 30 27 26 25 23
15 15 16 18 18 18 19 20 22 23 25 27 28 30 31 33 34 35 36 38 39 42 42 43 44 44 43 43 44 43 40 37 36 35 37 37 37 37 33 26 21 21 23 25 25 25 26 27 27 28 26 25 24 24
17 16 16 18 19 20 20 21 21 24 25 27 29 29 31 33 35 36 38 40 42 44 45 46 47 48 48 47 45 43 40 35 33 33 34 33 33 33 27 20 14 13 17 20 21 21 21 21 22 24 24 22 23 23
18 19 19 19 20 22 21 22 24 25 27 29 30 31 32 34 36 38 39 41 43 45 47 49 49 49 50 49 45 42 39 34 29 30 30 28 27 27 23 15 9 5 8 13 16 18 19 18 17 18 20 21 21 22
20 21 21 21 22 23 23 23 24 26 29 30 31 32 33 34 36 38 40 41 44 46 48 50 50 51 51 50 45 41 38 32 26 27 26 24 21 21 18 14 8 2 3 6 10 13 16 18 20 21 22 22 23 23
18 19 20 21 22 23 24 25 25 26 27 30 32 33 34 35 37 38 39 41 43 45 48 51 51 52 53 50 45 40 37 31 23 23 23 20 18 15 14 12 8 4 3 3 5 8 10 12 14 15 16 17 18 17
Wind_Direction
181 178 185 190 193 190 200 201 209 213 219 224 221 228 231 232 233 233 228 228 234 235 237 243 252 256 260 268 275 277 279 281 285 287 284 287 290 293 294 292 286 282 278 276 275 275 277 288 289 274 268 265 273 289
173 186 197 198 215 207 215 218 212 212 217 219 214 211 214 217 217 217 221 227 231 239 241 246 253 261 261 264 267 271 279 282 287 291 291 288 290 292 287 284 282 274 267 269 264 270 281 280 283 265 258 265 264 259
202 204 201 201 213 202 197 193 199 204 205 204 207 211 214 213 216 218 226 226 241 249 255 262 259 262 262 266 274 278 281 283 291 292 290 288 288 286 279 274 269 266 266 264 265 278 275 277 270 243 269 265 250 257
165 163 170 180 187 198 199 197 203 203 200 202 207 214 224 224 224 225 228 237 248 253 256 262 263 263 268 273 278 282 283 286 289 288 291 288 281 279 278 276 269 263 262 263 270 274 271 269 261 270 267 250 257 272
158 167 175 180 186 190 196 202 205 211 217 221 226 229 233 231 228 232 239 246 250 252 265 269 268 270 274 277 280 284 286 286 284 284 283 280 278 280 280 275 271 268 267 264 268 266 268 260 264 273 266 266 269 271
165 170 173 178 182 192 199 204 209 217 217 222 227 230 234 238 246 254 258 262 264 266 268 270 274 276 278 279 283 285 281 279 277 276 276 279 279 275 275 279 275 279 271 268 266 262 263 261 268 269 266 263 268 269
177 184 189 193 197 202 204 205 212 217 219 227 232 240 245 249 255 260 263 265 267 268 270 275 274 278 278 280 282 278 276 275 275 277 273 265 259 264 276 290 300 250 249 254 257 258 259 260 262 269 273 274 273 268
210 206 204 206 210 213 217 220 225 227 226 230 238 246 249 254 260 261 263 267 270 271 275 278 282 280 281 278 275 272 269 268 269 265 264 256 254 262 288 259 250 250 256 263 270 274 278 275 270 270 262 260 261 263
208 208 207 211 214 216 214 217 221 224 229 237 246 249 251 252 255 261 263 268 275 279 283 281 278 274 281 284 280 273 267 261 256 255 258 259 264 271 261 261 273 271 277 276 274 271 269 267 252 255 247 260 265 268
210 210 211 211 209 212 215 223 231 234 234 240 244 246 252 256 261 267 270 276 278 278 276 281 285 280 280 274 271 267 264 257 244 245 253 254 268 262 271 282 278 265 268 268 267 271 273 271 269 267 265 266 266 263
217 216 218 215 214 218 222 215 222 223 231 237 236 239 253 262 266 268 271 273 278 282 284 284 276 266 335 301 277 256 255 254 247 247 245 244 257 279 242 300 288 261 273 322 270 291 270 267 276 277 281 279 272 268
210 214 214 213 212 210 214 216 214 218 223 228 235 248 252 253 263 268 273 285 284 254 160 239 289 300 301 290 295 262 249 252 254 252 247 236 233 277 267 300 313 327 313 309 299 277 273 278 293 291 288 283 275 271
208 207 208 203 203 205 207 208 210 217 223 226 243 248 255 263 266 268 187 156 168 229 250 260 260 300 265 291 339 280 271 271 261 259 248 242 252 279 291 285 297 313 305 310 297 299 300 304 295 302 289 295 295 291
204 205 203 204 202 204 204 212 221 226 227 233 261 274 258 244 207 166 178 206 229 273 290 273 246 236 275 285 266 274 282 279 260 224 227 248 254 264 276 284 272 296 300 302 297 298 297 300 298 302 306 299 297 301
179 203 207 204 200 195 193 196 214 215 245 257 243 236 201 174 174 194 198 195 184 346 269 283 311 265 264 263 272 293 292 270 252 225 262 264 256 270 263 277 279 278 276 298 304 296 300 299 298 302 306 300 296 295
68 96 177 196 199 202 206 214 230 253 221 214 187 165 173 181 178 173 188 183 161 288 278 284 282 342 255 258 274 278 277 267 269 261 266 271 273 271 271 278 276 276 281 288 291 293 292 292 292 295 302 304 303 294
77 87 94 112 145 172 193 193 166 168 154 149 156 169 170 175 185 194 216 230 244 259 263 267 259 255 267 303 290 306 278 270 286 276 269 273 273 269 275 280 280 279 282 282 287 293 292 287 289 288 289 295 296 297
82 82 90 108 122 132 141 144 147 149 159 175 179 180 197 208 219 229 240 247 256 261 265 267 254 256 265 264 259 258 249 254 259 250 251 257 262 265 268 270 271 273 278 280 282 285 285 284 286 287 284 286 291 289
104 105 108 116 125 131 140 148 163 177 188 201 211 223 237 248 256 258 261 263 266 268 270 271 272 270 269 268 267 265 264 264 265 265 262 262 264 268 269 271 273 275 277 277 279 282 283 281 283 284 282 283 286 288
90 127 175 195 198 204 206 215 227 237 245 247 250 253 256 259 262 266 270 272 273 273 273 273 274 274 274 273 272 271 270 268 267 267 268 267 266 266 268 270 272 272 273 275 277 277 278 279 280 280 280 282 284 280
68 69 77 97 181 219 232 242 251 253 257 260 266 271 274 273 275 276 278 285 286 284 280 278 280 279 278 277 277 278 281 281 280 277 276 273 272 273 272 273 274 275 275 275 277 279 280 280 280 279 278 276 271 271
40 41 40 44 40 7 299 264 281 272 266 265 276 285 284 281 283 288 292 295 298 292 286 284 288 295 298 298 294 289 286 285 285 285 285 283 281 281 280 279 278 276 276 275 274 274 274 274 273 271 269 267 263 263
26 22 19 14 5 1 352 344 320 307 290 284 292 295 294 294 295 297 300 296 293 292 299 305 304 302 301 300 301 299 296 293 292 291 290 290 290 289 288 287 285 282 279 275 273 273 272 268 267 265 262 264 262 258
9 16 16 16 12 6 1 350 344 336 332 333 322 317 311 314 313 309 302 298 302 300 298 299 301 299 298 299 299 299 299 298 295 294 293 294 295 294 294 291 287 282 278 273 268 265 261 259 258 258 258 257 257 258
344 352 357 1 2 1 358 355 354 351 347 343 340 338 332 333 330 330 323 318 313 317 317 316 312 308 306 305 302 300 298 296 296 297 299 300 299 297 295 291 286 281 274 267 261 255 251 247 249 251 252 253 254 254
324 327 332 335 341 344 345 345 345 344 342 341 340 341 338 337 335 338 337 333 331 330 329 328 324 321 321 318 310 304 301 301 303 305 305 303 303 302 299 292 283 275 268 260 253 249 246 243 244 247 250 252 254 256
314 312 311 315 319 324 329 333 334 336 336 338 336 336 334 334 335 335 336 336 335 334 335 335 333 329 328 323 318 315 309 306 307 307 309 310 311 310 305 296 283 270 259 253 249 246 243 241 244 247 249 254 255 255
305 301 299 300 303 308 314 319 323 328 330 332 331 332 331 330 331 332 334 334 333 334 334 334 333 332 331 327 322 320 319 313 310 313 315 317 318 319 314 303 286 264 250 244 244 243 243 242 240 243 247 249 252 252
298 297 294 293 294 296 300 306 310 315 319 323 325 326 327 325 326 329 331 331 331 332 333 334 333 332 333 330 326 325 322 315 312 317 319 322 325 326 323 312 290 262 244 238 238 241 241 242 241 239 243 245 249 252
293 292 289 288 289 289 292 296 299 304 309 313 316 320 322 323 324 326 329 330 331 332 333 334 334 334 335 334 330 327 323 317 314 319 323 326 330 332 333 328 311 269 241 232 231 234 237 239 239 236 236 241 246 249
291 291 289 288 290 292 291 292 295 297 301 305 310 315 317 320 322 324 327 328 329 332 333 334 335 335 337 336 333 328 323 319 316 321 325 328 332 339 343 340 332 287 238 228 226 228 230 229 227 229 231 235 242 249
296 297 297 296 296 296 296 294 293 294 297 301 306 310 313 316 319 320 323 326 328 330 332 334 337 337 338 337 336 330 324 321 316 321 326 328 330 342 351 359 5 351 240 230 227 229 230 230 226 226 231 239 247 256
296 299 301 302 302 302 302 300 298 297 298 300 303 307 310 313 315 317 320 323 327 330 332 334 337 338 339 339 338 332 326 323 315 318 323 326 327 329 346 356 353 339 301 256 235 229 228 229 232 237 243 249 258 265
Height
5368 5385 5398 5407 5417 5428 5439 5449 5456 5462 5469 5477 5483 5489 5494 5501 5506 5511 5517 5521 5526 5528 5529 5533 5535 5537 5537 5537 5538 5541 5541 5542 5540 5539 5537 5535 5532 5528 5524 5525 5522 5519 5517 5517 5515 5514 5513 5519 5518 5515 5513 5512 5514 5515
5371 5383 5391 5402 5410 5419 5429 5439 5448 5456 5463 5470 5475 5481 5487 5494 5500 5503 5508 5513 5516 5520 5523 5522 5523 5525 5527 5528 5530 5530 5529 5529 5527 5525 5523 5519 5516 5511 5507 5504 5505 5506 5507 5506 5507 5506 5506 5507 5507 5507 5503 5505 5508 5507
5372 5383 5394 5403 5411 5417 5424 5433 5441 5449 5457 5463 5470 5476 5481 5487 5491 5496 5500 5505 5508 5511 5512 5514 5514 5518 5519 5519 5520 5519 5516 5515 5514 5511 5508 5504 5498 5494 5492 5493 5494 5495 5494 5493 5493 5499 5498 5497 5498 5498 5497 5498 5499 5499
5375 5383 5391 5399 5407 5415 5422 5429 5436 5444 5451 5458 5464 5469 5475 5481 5485 5490 5494 5498 5501 5503 5504 5505 5505 5508 5509 5510 5508 5506 5504 5501 5498 5495 5492 5488 5484 5480 5482 5481 5481 5482 5480 5482 5482 5485 5485 5485 5487 5488 5489 5487 5490 5491
5376 5384 5392 5400 5408 5415 5422 5429 5435 5441 5448 5455 5462 5467 5472 5477 5481 5485 5488 5490 5492 5495 5495 5495 5495 5497 5498 5496 5495 5492 5489 5485 5482 5480 5478 5477 5474 5470 5473 5470 5471 5469 5469 5467 5470 5472 5470 5476 5475 5477 5479 5480 5480 5482
5380 5388 5395 5402 5408 5415 5422 5429 5435 5440 5446 5451 5455 5459 5465 5468 5471 5476 5479 5482 5484 5485 5485 5485 5485 5485 5484 5482 5480 5477 5473 5471 5468 5467 5467 5466 5465 5461 5462 5460 5459 5458 5455 5455 5458 5458 5460 5464 5466 5468 5470 5474 5473 5473
5383 5390 5396 5402 5408 5415 5421 5427 5432 5438 5444 5447 5450 5453 5458 5461 5465 5469 5473 5475 5475 5476 5476 5474 5472 5470 5469 5467 5464 5461 5459 5460 5460 5460 5459 5458 5457 5455 5452 5453 5453 5449 5447 5446 5446 5447 5451 5452 5454 5457 5459 5463 5463 5465
5385 5390 5396 5400 5406 5412 5418 5424 5429 5434 5439 5443 5447 5450 5453 5456 5460 5463 5464 5465 5465 5466 5466 5462 5459 5456 5455 5454 5454 5453 5453 5453 5453 5452 5452 5451 5450 5448 5449 5449 5446 5443 5442 5442 5442 5441 5443 5446 5447 5449 5450 5452 5452 5454
5387 5391 5396 5401 5406 5412 5416 5421 5426 5430 5434 5438 5441 5444 5448 5451 5452 5453 5454 5454 5453 5455 5452 5451 5448 5446 5444 5445 5445 5446 5445 5445 5446 5446 5445 5445 5444 5445 5445 5440 5442 5440 5439 5440 5439 5439 5439 5439 5441 5443 5444 5444 5444 5444
5387 5392 5396 5400 5404 5409 5413 5418 5421 5424 5428 5432 5436 5439 5440 5442 5443 5444 5443 5444 5443 5441 5440 5441 5441 5439 5439 5436 5436 5436 5436 5436 5437 5439 5439 5439 5441 5439 5438 5438 5437 5436 5435 5434 5434 5434 5434 5435 5436 5436 5437 5436 5436 5436
5382 5387 5392 5396 5400 5405 5410 5413 5417 5420 5423 5427 5429 5431 5433 5434 5435 5435 5435 5435 5434 5434 5433 5433 5433 5431 5430 5427 5425 5425 5427 5429 5430 5433 5433 5433 5436 5435 5434 5434 5433 5432 5431 5430 5430 5430 5429 5430 5430 5430 5429 5428 5427 5427
5377 5382 5387 5391 5395 5399 5404 5408 5412 5415 5418 5422 5426 5427 5429 5429 5429 5429 5429 5430 5428 5428 5428 5428 5429 5427 5426 5423 5420 5421 5422 5424 5425 5427 5427 5429 5430 5430 5430 5429 5429 5427 5427 5426 5426 5426 5426 5426 5425 5423 5421 5419 5417 5417
5375 5380 5384 5388 5393 5397 5402 5406 5410 5414 5418 5420 5423 5424 5424 5425 5425 5424 5425 5426 5427 5427 5426 5426 5426 5425 5423 5421 5420 5421 5421 5421 5421 5422 5423 5425 5425 5424 5425 5425 5425 5424 5423 5422 5422 5421 5421 5419 5418 5417 5415 5413 5411 5409
5372 5377 5381 5387 5391 5396 5402 5406 5410 5413 5416 5419 5420 5420 5420 5421 5421 5423 5425 5425 5425 5426 5424 5423 5423 5422 5422 5421 5420 5419 5419 5418 5418 5419 5420 5421 5422 5422 5421 5421 5420 5419 5419 5419 5418 5417 5416 5415 5413 5411 5409 5407 5406 5405
5370 5373 5378 5384 5390 5396 5401 5405 5410 5412 5414 5415 5415 5416 5417 5419 5421 5422 5423 5425 5425 5424 5423 5422 5420 5420 5419 5419 5418 5418 5417 5416 5416 5417 5418 5418 5418 5417 5417 5416 5416 5415 5414 5414 5412 5411 5410 5408 5407 5406 5404 5402 5401 5399
5376 5374 5377 5382 5388 5394 5400 5404 5407 5409 5410 5411 5413 5415 5418 5420 5421 5422 5423 5423 5423 5422 5421 5420 5420 5418 5417 5416 5416 5415 5414 5413 5414 5413 5412 5412 5411 5411 5410 5410 5409 5408 5407 5406 5405 5404 5403 5402 5400 5399 5397 5396 5395 5394
5388 5386 5385 5386 5390 5394 5399 5403 5406 5407 5409 5412 5414 5416 5418 5419 5420 5421 5421 5421 5421 5420 5419 5418 5417 5417 5415 5414 5413 5411 5410 5410 5408 5407 5406 5406 5405 5404 5403 5402 5400 5398 5398 5397 5395 5395 5394 5393 5392 5391 5390 5389 5387 5386
5399 5399 5398 5398 5399 5401 5404 5406 5408 5411 5412 5414 5416 5417 5417 5418 5418 5418 5417 5417 5417 5416 5415 5414 5413 5412 5409 5409 5408 5406 5404 5403 5401 5399 5396 5395 5394 5392 5391 5390 5389 5387 5386 5386 5385 5384 5384 5383 5382 5381 5380 5379 5379 5378
5407 5407 5407 5408 5409 5410 5410 5412 5413 5413 5415 5415 5416 5415 5415 5415 5415 5414 5413 5412 5411 5410 5408 5407 5405 5404 5402 5400 5398 5396 5394 5392 5392 5390 5388 5386 5384 5382 5381 5379 5377 5375 5374 5373 5372 5371 5370 5369 5369 5369 5368 5368 5367 5366
5410 5410 5410 5410 5410 5411 5411 5412 5412 5412 5412 5412 5411 5411 5411 5410 5408 5407 5405 5404 5402 5400 5398 5396 5395 5391 5389 5387 5385 5383 5381 5379 5378 5377 5375 5372 5370 5368 5365 5363 5362 5360 5359 5357 5356 5355 5355 5355 5355 5355 5355 5354 5354 5354
5412 5412 5411 5410 5410 5409 5409 5409 5409 5409 5408 5407 5406 5405 5404 5402 5400 5399 5397 5394 5392 5389 5388 5385 5383 5381 5378 5375 5373 5370 5367 5364 5362 5360 5359 5358 5354 5352 5350 5347 5345 5343 5342 5340 5339 5338 5338 5338 5338 5339 5340 5340 5340 5340
5413 5412 5411 5411 5410 5409 5409 5408 5407 5406 5405 5403 5402 5400 5399 5397 5395 5393 5391 5389 5386 5383 5381 5379 5376 5373 5371 5367 5363 5360 5357 5353 5351 5348 5345 5342 5340 5338 5334 5331 5329 5326 5324 5322 5321 5320 5320 5321 5322 5324 5324 5325 5326 5327
5414 5413 5411 5410 5409 5408 5408 5405 5404 5403 5402 5400 5398 5396 5395 5393 5391 5388 5386 5384 5380 5376 5373 5371 5369 5365 5362 5358 5354 5350 5346 5343 5339 5336 5332 5328 5325 5322 5319 5316 5312 5309 5307 5305 5303 5303 5304 5305 5307 5308 5309 5311 5312 5313
5414 5413 5411 5409 5408 5407 5405 5403 5402 5400 5398 5396 5394 5392 5390 5387 5386 5383 5380 5377 5374 5371 5368 5364 5360 5357 5353 5349 5345 5340 5336 5332 5327 5322 5319 5315 5311 5306 5301 5297 5293 5291 5289 5287 5287 5288 5289 5291 5294 5296 5297 5298 5299 5300
5414 5413 5411 5408 5406 5405 5403 5401 5399 5397 5395 5392 5390 5387 5385 5382 5380 5377 5374 5371 5367 5364 5361 5357 5352 5348 5344 5340 5334 5329 5324 5320 5315 5310 5305 5300 5295 5289 5283 5278 5274 5272 5271 5271 5272 5273 5275 5278 5282 5283 5285 5287 5288 5289
5411 5410 5409 5406 5405 5403 5401 5399 5396 5394 5392 5389 5386 5384 5381 5378 5375 5372 5369 5365 5362 5358 5354 5350 5345 5340 5335 5331 5325 5318 5312 5307 5302 5297 5291 5284 5278 5272 5265 5259 5255 5254 5254 5255 5257 5259 5262 5266 5269 5272 5274 5276 5277 5279
5408 5406 5405 5403 5402 5400 5398 5396 5394 5391 5389 5386 5383 5380 5377 5373 5371 5368 5364 5360 5356 5351 5347 5342 5337 5332 5327 5320 5314 5307 5301 5295 5290 5284 5277 5270 5263 5255 5248 5242 5239 5238 5239 5241 5244 5247 5250 5254 5258 5261 5263 5265 5267 5269
5404 5402 5400 5399 5397 5396 5394 5392 5390 5388 5386 5383 5380 5376 5373 5369 5367 5363 5359 5354 5349 5345 5340 5335 5329 5323 5317 5311 5303 5296 5290 5283 5277 5271 5264 5257 5249 5241 5233 5227 5224 5224 5226 5229 5232 5236 5240 5243 5247 5251 5254 5256 5259 5260
5399 5397 5396 5395 5393 5391 5389 5388 5385 5384 5381 5378 5375 5372 5369 5365 5362 5358 5354 5349 5343 5338 5332 5327 5321 5314 5308 5301 5293 5286 5279 5272 5266 5260 5254 5247 5239 5231 5223 5218 5214 5214 5217 5220 5224 5227 5231 5234 5238 5242 5245 5248 5250 5252
5394 5392 5391 5388 5387 5385 5384 5382 5380 5378 5376 5373 5371 5368 5364 5360 5356 5352 5348 5343 5337 5331 5325 5319 5312 5305 5298 5290 5282 5275 5268 5262 5256 5252 5246 5239 5232 5225 5218 5213 5209 5209 5211 5214 5218 5221 5224 5227 5230 5234 5238 5241 5243 5244
5389 5387 5385 5383 5381 5379 5378 5376 5374 5372 5370 5368 5365 5363 5360 5356 5351 5347 5342 5337 5331 5325 5319 5312 5305 5297 5289 5282 5274 5265 5258 5253 5249 5245 5239 5234 5228 5222 5216 5211 5208 5208 5209 5211 5213 5216 5219 5222 5225 5228 5231 5234 5236 5238
5383 5382 5380 5378 5376 5374 5372 5370 5368 5366 5364 5361 5359 5357 5354 5350 5345 5341 5336 5331 5325 5319 5313 5306 5298 5290 5282 5273 5265 5258 5251 5246 5242 5238 5234 5230 5226 5221 5216 5213 5210 5209 5209 5210 5211 5213 5215 5218 5221 5223 5226 5228 5230 5232
5377 5375 5374 5372 5370 5368 5366 5364 5361 5360 5357 5355 5352 5349 5346 5343 5339 5334 5330 5325 5319 5313 5306 5298 5291 5283 5275 5266 5258 5251 5244 5239 5236 5233 5230 5226 5223 5220 5217 5214 5212 5211 5210 5210 5210 5211 5212 5214 5217 5219 5221 5223 5225 5226